Track ONEWEB-0278 now! 10-day predictions ONEWEB-0278 is classified as:
1 48996U 21060AF 22141.58335648 -.00008510 00000-0 -22312-1 0 9994 2 48996 87.9165 164.8409 0001891 87.5269 76.1674 13.16600413 1302